Weather History for PASX - October, 2011

Change the Weather History Date:

Tuesday, October 18, 2011

  Actual Average Record
Temperature  
Mean Temperature 35 °F -  
Max Temperature 42 °F 41 °F 53 °F (1969)
Min Temperature 28 °F 25 °F -2 °F (1996)
Degree Days  
Heating Degree Days 30    
Moisture  
Dew Point 29 °F    
Average Humidity 82    
Maximum Humidity 100    
Minimum Humidity 46    
Precipitation  
Precipitation 0.00 in - - ()
Sea Level Pressure  
Sea Level Pressure 29.67 in    
Wind  
Wind Speed 1 mph (South)    
Max Wind Speed 10 mph    
Max Gust Speed -    
Visibility 10 miles    
Events      
Averages and records for this station are not official NWS values.
T = Trace of Precipitation, MM = Missing Value Source: NWS Daily Summary

Daily Weather History Graph

Daily Weather History Graph

Search for Another Location

Airport or City:

Trip Planner

Search our weather history database for the weather conditions in past years. The results will help you decide how hot, cold, wet, or windy it might be!

Date:

Astronomy

Oct. 18, 2011 Rise Set
Actual Time 8:52 AM AKDT 6:45 PM AKDT
Civil Twilight 8:08 AM AKDT 7:28 PM AKDT
Nautical Twilight 7:19 AM AKDT 8:17 PM AKDT
Astronomical Twilight 6:30 AM AKDT 9:06 PM AKDT
Moon 10:39 PM AKDT (10/18) 3:51 PM AKDT (10/18)
Length of Visible Light 11h 19m
Length of Day
9h 53m
Waning Gibbous, 63% of the Moon is Illuminated
Oct 18
Waning Gibbous
Oct 19
Last Quarter
Oct 26
New
Nov 2
First Quarter
Nov 10
Full

Hourly Weather History & Observations

Time (AKDT) Temp. Windchill Dew Point Humidity Pressure Visibility Wind Dir Wind Speed Gust Speed Precip Events Conditions
12:16 AM 37.4 °F - 33.8 °F 87% 29.75 in 10.0 mi Calm Calm - N/A   Overcast
12:36 AM 35.6 °F - 33.8 °F 93% 29.75 in 10.0 mi Calm Calm - N/A   Overcast
12:56 AM 35.6 °F - 33.8 °F 93% 29.74 in 10.0 mi Calm Calm - N/A   Overcast
1:16 AM 35.6 °F - 33.8 °F 93% 29.74 in - Calm Calm - N/A   Unknown
1:36 AM 35.6 °F - 33.8 °F 93% 29.74 in 10.0 mi Calm Calm - N/A   Overcast
1:56 AM 35.6 °F - 33.8 °F 93% 29.73 in 10.0 mi Calm Calm - N/A   Overcast
2:16 AM 33.8 °F - 32.0 °F 93% 29.73 in 10.0 mi Calm Calm - N/A   Overcast
2:36 AM 33.8 °F - 30.2 °F 87% 29.72 in - Calm Calm - N/A   Mostly Cloudy
2:56 AM 30.2 °F - 28.4 °F 93% 29.71 in - Calm Calm - N/A   Unknown
3:16 AM 30.2 °F - 28.4 °F 93% 29.71 in - Calm Calm - N/A   Unknown
3:36 AM 30.2 °F - 28.4 °F 93% 29.71 in - Calm Calm - N/A   Unknown
3:56 AM 30.2 °F - 28.4 °F 93% 29.70 in - Calm Calm - N/A   Unknown
4:16 AM 28.4 °F - 26.6 °F 93% 29.70 in - Calm Calm - N/A   Unknown
4:36 AM 28.4 °F - 26.6 °F 93% 29.69 in - Calm Calm - N/A   Unknown
4:56 AM 28.4 °F - 26.6 °F 93% 29.69 in - Calm Calm - N/A   Mostly Cloudy
5:16 AM 28.4 °F 24.6 °F 26.6 °F 93% 29.68 in - East 3.5 mph - N/A   Overcast
5:36 AM 28.4 °F - 26.6 °F 93% 29.68 in 10.0 mi Calm Calm - N/A   Overcast
5:56 AM 28.4 °F - 28.4 °F 100% 29.67 in - Calm Calm - N/A   Overcast
6:16 AM 30.2 °F - 28.4 °F 93% 29.67 in 10.0 mi Calm Calm - N/A   Overcast
6:36 AM 30.2 °F - 28.4 °F 93% 29.66 in 10.0 mi Calm Calm - N/A   Overcast
6:56 AM 30.2 °F - 28.4 °F 93% 29.66 in - Calm Calm - N/A   Overcast
7:16 AM 30.2 °F - 28.4 °F 93% 29.66 in - Calm Calm - N/A   Overcast
7:36 AM 28.4 °F - 26.6 °F 93% 29.65 in - Calm Calm - N/A   Unknown
7:56 AM 28.4 °F - 26.6 °F 93% 29.65 in - Calm Calm - N/A   Unknown
8:16 AM 28.4 °F - 26.6 °F 93% 29.65 in 10.0 mi Calm Calm - N/A   Clear
8:36 AM 28.4 °F - 26.6 °F 93% 29.65 in 10.0 mi Calm Calm - N/A   Clear
8:56 AM 28.4 °F - 26.6 °F 93% 29.65 in 10.0 mi Calm Calm - N/A   Clear
9:16 AM 28.4 °F - 26.6 °F 93% 29.65 in 10.0 mi Calm Calm - N/A   Clear
9:36 AM 28.4 °F 24.6 °F 24.8 °F 86% 29.65 in 10.0 mi ESE 3.5 mph - N/A   Clear
9:56 AM 28.4 °F - 26.6 °F 93% 29.65 in 9.0 mi Calm Calm - N/A   Clear
10:16 AM 28.4 °F - 28.4 °F 100% 29.65 in 9.0 mi Calm Calm - N/A   Clear
10:36 AM 30.2 °F 26.7 °F 30.2 °F 100% 29.65 in 10.0 mi East 3.5 mph - N/A   Clear
10:56 AM 33.8 °F 29.6 °F 30.2 °F 87% 29.64 in 10.0 mi South 4.6 mph - N/A   Clear
11:16 AM 35.6 °F 32.8 °F 33.8 °F 93% 29.64 in 10.0 mi South 3.5 mph - N/A   Clear
11:36 AM 37.4 °F 32.8 °F 33.8 °F 87% 29.65 in 10.0 mi South 5.8 mph - N/A   Clear
11:56 AM 37.4 °F 32.1 °F 32.0 °F 81% 29.65 in 10.0 mi South 6.9 mph - N/A   Clear
12:16 PM 39.2 °F 32.5 °F 32.0 °F 75% 29.64 in 10.0 mi South 10.4 mph - N/A   Clear
12:36 PM 39.2 °F 33.0 °F 32.0 °F 75% 29.65 in 10.0 mi South 9.2 mph - N/A   Clear
12:56 PM 39.2 °F 33.6 °F 32.0 °F 75% 29.65 in 10.0 mi South 8.1 mph - N/A   Clear
1:16 PM 39.2 °F 33.0 °F 32.0 °F 75% 29.65 in 10.0 mi South 9.2 mph - N/A   Partly Cloudy
1:36 PM 41.0 °F 36.4 °F 32.0 °F 70% 29.65 in 10.0 mi SW 6.9 mph - N/A   Mostly Cloudy
1:56 PM 41.0 °F 36.4 °F 30.2 °F 65% 29.65 in 10.0 mi SW 6.9 mph - N/A   Overcast
2:16 PM 41.0 °F 37.1 °F 30.2 °F 65% 29.66 in 10.0 mi WSW 5.8 mph - N/A   Mostly Cloudy
2:36 PM 42.8 °F 40.1 °F 30.2 °F 61% 29.66 in 10.0 mi SSW 4.6 mph - N/A   Mostly Cloudy
2:56 PM 42.8 °F 41.1 °F 28.4 °F 57% 29.66 in 10.0 mi SSW 3.5 mph - N/A   Overcast
3:16 PM 42.8 °F 40.1 °F 28.4 °F 57% 29.66 in 10.0 mi South 4.6 mph - N/A   Overcast
3:36 PM 42.8 °F 40.1 °F 26.6 °F 53% 29.66 in 10.0 mi SW 4.6 mph - N/A   Overcast
3:56 PM 42.8 °F 40.1 °F 26.6 °F 53% 29.66 in 10.0 mi SSE 4.6 mph - N/A   Mostly Cloudy
4:16 PM 42.8 °F - 24.8 °F 49% 29.66 in 10.0 mi Calm Calm - N/A   Partly Cloudy
4:36 PM 42.8 °F - 26.6 °F 53% 29.66 in 10.0 mi Calm Calm - N/A   Clear
4:56 PM 42.8 °F - 23.0 °F 46% 29.66 in 10.0 mi Calm Calm - N/A   Clear
5:16 PM 42.8 °F - 24.8 °F 49% 29.66 in 10.0 mi Calm Calm - N/A   Clear
5:36 PM 39.2 °F - 24.8 °F 56% 29.66 in 10.0 mi Calm Calm - N/A   Clear
5:56 PM 35.6 °F - 26.6 °F 70% 29.66 in 10.0 mi Calm Calm - N/A   Clear
6:16 PM 35.6 °F - 26.6 °F 70% 29.66 in 10.0 mi Calm Calm - N/A   Clear
6:36 PM 33.8 °F - 26.6 °F 75% 29.66 in 10.0 mi Calm Calm - N/A   Clear
6:56 PM 30.2 °F - 24.8 °F 80% 29.66 in 10.0 mi Calm Calm - N/A   Clear
7:16 PM 30.2 °F - 24.8 °F 80% 29.66 in - Calm Calm - N/A   Clear
7:36 PM 32.0 °F - 26.6 °F 80% 29.66 in 10.0 mi Calm Calm - N/A   Clear
7:56 PM 28.4 °F - 24.8 °F 86% 29.67 in 10.0 mi Calm Calm - N/A   Clear
8:16 PM 28.4 °F - 23.0 °F 80% 29.67 in 10.0 mi Calm Calm - N/A   Clear
8:36 PM 28.4 °F 22.2 °F 24.8 °F 86% 29.67 in 10.0 mi East 5.8 mph - N/A   Clear
8:56 PM 28.4 °F - 23.0 °F 80% 29.68 in 10.0 mi Calm Calm - N/A   Clear
9:16 PM 26.6 °F 21.2 °F 23.0 °F 86% 29.68 in 10.0 mi East 4.6 mph - N/A   Clear
9:36 PM 26.6 °F - 23.0 °F 86% 29.68 in 10.0 mi Calm Calm - N/A   Clear
9:56 PM 26.6 °F - 23.0 °F 86% 29.68 in 10.0 mi Calm Calm - N/A   Clear
10:16 PM 26.6 °F - 24.8 °F 93% 29.68 in 10.0 mi Calm Calm - N/A   Clear
10:36 PM 24.8 °F 20.5 °F 23.0 °F 93% 29.68 in 10.0 mi ENE 3.5 mph - N/A   Clear
10:56 PM 24.8 °F 20.5 °F 21.2 °F 86% 29.69 in 10.0 mi East 3.5 mph - N/A   Clear
11:16 PM 24.8 °F 20.5 °F 23.0 °F 93% 29.68 in 10.0 mi East 3.5 mph - N/A   Clear
11:36 PM 23.0 °F - 19.4 °F 86% 29.68 in 10.0 mi Calm Calm - N/A   Clear
11:56 PM 24.8 °F - 21.2 °F 86% 29.69 in 10.0 mi Calm Calm - N/A   Clear